When you browse on this site, cookies collect data to enhance your experience and personalize the content and advertising you see.
Visit our Privacy Policy to learn more. By continuing to use the site, you agree to this use of cookies and data.
  • Em Portugal
  • Lista de países
  • Para 7 dias
  • Temperatura da água
  • Mapas de satélite
  • Mapa do tempo
  • Widgets de tempo
  • user-avatar
    Iniciar Sessão

    Previsão horária em Vidin

    Hoje, 21 Abril, Domingo

    Tempo Temperatura Precipitação Vento Pressão Humidade
    00:00 +10°C° 0 mm 1 m/s 767 mmHg 60%
    01:00 +10°C° 0 mm 1 m/s 767 mmHg 59%
    02:00 +9°C° 0 mm 1 m/s 767 mmHg 58%
    03:00 +9°C° 0 mm 1 m/s 767 mmHg 59%
    04:00 +9°C° 0 mm 1 m/s 766 mmHg 61%
    05:00 +8°C° 0 mm 1 m/s 766 mmHg 63%
    06:00 +9°C° 0 mm 1 m/s 766 mmHg 62%
    07:00 +11°C° 0 mm 1 m/s 765 mmHg 61%
    08:00 +12°C° 0 mm 1 m/s 765 mmHg 60%
    09:00 +14°C° 0 mm 2 m/s 765 mmHg 56%
    10:00 +15°C° 0 mm 2 m/s 764 mmHg 52%
    11:00 +17°C° 0 mm 2 m/s 764 mmHg 47%
    12:00 +18°C° 0 mm 2 m/s 764 mmHg 44%
    13:00 +19°C° 0 mm 2 m/s 763 mmHg 41%
    14:00 +20°C° 0 mm 2 m/s 763 mmHg 37%
    15:00 +21°C° 0 mm 1 m/s 762 mmHg 37%
    16:00 +22°C° 0 mm 1 m/s 762 mmHg 37%
    17:00 +22°C° 0 mm 1 m/s 761 mmHg 37%
    18:00 +20°C° 0 mm 1 m/s 761 mmHg 42%
    19:00 +18°C° 0 mm 1 m/s 761 mmHg 48%
    20:00 +15°C° 0 mm 1 m/s 761 mmHg 53%
    21:00 +14°C° 0 mm 1 m/s 761 mmHg 55%
    22:00 +14°C° 0 mm 1 m/s 761 mmHg 58%
    23:00 +13°C° 0 mm 2 m/s 762 mmHg 60%

    Amanhã, 22 Abril, Segunda-feira

    Tempo Temperatura Precipitação Vento Pressão Humidade
    00:00 +12°C° 0 mm 2 m/s 761 mmHg 61%
    01:00 +12°C° 0 mm 2 m/s 761 mmHg 61%
    02:00 +12°C° 0 mm 2 m/s 761 mmHg 62%
    03:00 +10°C° 0 mm 2 m/s 761 mmHg 63%
    04:00 +11°C° 0 mm 1 m/s 761 mmHg 63%
    05:00 +10°C° 0 mm 1 m/s 760 mmHg 64%
    06:00 +12°C° 0 mm 1 m/s 760 mmHg 62%
    07:00 +13°C° 0 mm 1 m/s 760 mmHg 60%
    08:00 +14°C° 0 mm 1 m/s 760 mmHg 58%
    09:00 +16°C° 0 mm 1 m/s 760 mmHg 54%
    10:00 +19°C° 0 mm 1 m/s 759 mmHg 49%
    11:00 +19°C° 0 mm 2 m/s 759 mmHg 45%
    12:00 +20°C° 0 mm 2 m/s 759 mmHg 43%
    13:00 +21°C° 0 mm 3 m/s 758 mmHg 40%
    14:00 +22°C° 0 mm 3 m/s 758 mmHg 37%
    15:00 +22°C° 0 mm 4 m/s 757 mmHg 39%
    16:00 +22°C° 0 mm 4 m/s 757 mmHg 40%
    17:00 +22°C° 0 mm 4 m/s 757 mmHg 41%
    18:00 +20°C° 0 mm 5 m/s 757 mmHg 50%
    19:00 +16°C° 0 mm 7 m/s 757 mmHg 59%
    20:00 +13°C° 0 mm 8 m/s 758 mmHg 67%
    21:00 +12°C° 0 mm 7 m/s 758 mmHg 71%
    22:00 +13°C° 0 mm 6 m/s 758 mmHg 74%
    23:00 +12°C° 0 mm 5 m/s 759 mmHg 77%

    Depois de amanhã, 23 Abril, Terça-feira

    Tempo Temperatura Precipitação Vento Pressão Humidade
    00:00 +12°C° 0 mm 5 m/s 759 mmHg 76%
    01:00 +10°C° 0 mm 5 m/s 759 mmHg 75%
    02:00 +10°C° 0 mm 5 m/s 760 mmHg 74%
    03:00 +9°C° 0.6 mm 5 m/s 760 mmHg 76%
    04:00 +8°C° 0.6 mm 5 m/s 760 mmHg 78%
    05:00 +8°C° 0.6 mm 5 m/s 760 mmHg 81%
    06:00 +7°C° 1.3 mm 5 m/s 760 mmHg 83%
    07:00 +7°C° 1.3 mm 6 m/s 760 mmHg 85%
    08:00 +7°C° 1.3 mm 6 m/s 760 mmHg 87%
    09:00 +8°C° 0.1 mm 6 m/s 760 mmHg 83%
    10:00 +9°C° 0.1 mm 6 m/s 760 mmHg 79%
    11:00 +10°C° 0.1 mm 7 m/s 760 mmHg 76%
    12:00 +11°C° 0 mm 6 m/s 760 mmHg 73%
    13:00 +13°C° 0 mm 5 m/s 760 mmHg 71%
    14:00 +14°C° 0 mm 5 m/s 760 mmHg 69%
    15:00 +14°C° 0 mm 5 m/s 760 mmHg 70%
    16:00 +14°C° 0 mm 4 m/s 759 mmHg 71%
    17:00 +14°C° 0 mm 4 m/s 759 mmHg 71%
    18:00 +13°C° 0 mm 4 m/s 759 mmHg 71%
    19:00 +13°C° 0 mm 4 m/s 760 mmHg 70%
    20:00 +12°C° 0 mm 4 m/s 760 mmHg 69%
    21:00 +12°C° 0 mm 4 m/s 760 mmHg 71%
    22:00 +11°C° 0 mm 3 m/s 761 mmHg 74%
    23:00 +10°C° 0 mm 3 m/s 761 mmHg 76%

    24 Abril, Quarta-feira

    Tempo Temperatura Precipitação Vento Pressão Humidade
    00:00 +10°C° 0.1 mm 3 m/s 762 mmHg 77%
    01:00 +9°C° 0.1 mm 3 m/s 762 mmHg 79%
    02:00 +9°C° 0.1 mm 3 m/s 762 mmHg 81%
    03:00 +8°C° 0 mm 3 m/s 762 mmHg 82%
    04:00 +8°C° 0 mm 3 m/s 763 mmHg 84%
    05:00 +7°C° 0 mm 2 m/s 763 mmHg 85%
    06:00 +8°C° 0 mm 2 m/s 763 mmHg 82%
    07:00 +9°C° 0 mm 2 m/s 763 mmHg 78%
    08:00 +10°C° 0 mm 2 m/s 764 mmHg 74%
    09:00 +12°C° 0 mm 2 m/s 764 mmHg 71%
    10:00 +14°C° 0 mm 2 m/s 763 mmHg 68%
    11:00 +15°C° 0 mm 2 m/s 763 mmHg 65%
    12:00 +17°C° 0 mm 3 m/s 763 mmHg 63%
    13:00 +18°C° 0 mm 3 m/s 763 mmHg 60%
    14:00 +20°C° 0 mm 3 m/s 762 mmHg 58%
    15:00 +20°C° 0 mm 3 m/s 762 mmHg 58%
    16:00 +21°C° 0 mm 3 m/s 762 mmHg 58%
    17:00 +21°C° 0 mm 3 m/s 761 mmHg 58%
    18:00 +20°C° 0 mm 3 m/s 762 mmHg 64%
    19:00 +18°C° 0 mm 2 m/s 762 mmHg 71%
    20:00 +16°C° 0 mm 2 m/s 762 mmHg 78%
    21:00 +16°C° 0 mm 2 m/s 763 mmHg 80%
    22:00 +15°C° 0 mm 2 m/s 763 mmHg 83%
    23:00 +14°C° 0 mm 2 m/s 763 mmHg 85%

    25 Abril, Quinta-feira

    Tempo Temperatura Precipitação Vento Pressão Humidade
    00:00 +13°C° 0 mm 2 m/s 763 mmHg 87%
    01:00 +13°C° 0 mm 2 m/s 763 mmHg 89%
    02:00 +12°C° 0 mm 2 m/s 764 mmHg 91%
    03:00 +12°C° 0 mm 2 m/s 764 mmHg 89%
    04:00 +12°C° 0 mm 2 m/s 764 mmHg 88%
    05:00 +11°C° 0 mm 1 m/s 764 mmHg 87%
    06:00 +12°C° 0 mm 2 m/s 764 mmHg 83%
    07:00 +12°C° 0 mm 2 m/s 764 mmHg 79%
    08:00 +13°C° 0 mm 2 m/s 765 mmHg 76%
    09:00 +14°C° 0 mm 2 m/s 764 mmHg 73%
    10:00 +16°C° 0 mm 2 m/s 764 mmHg 70%
    11:00 +17°C° 0 mm 2 m/s 764 mmHg 68%
    12:00 +19°C° 0 mm 2 m/s 763 mmHg 65%
    13:00 +20°C° 0 mm 2 m/s 763 mmHg 62%
    14:00 +23°C° 0 mm 2 m/s 763 mmHg 59%
    15:00 +22°C° 0 mm 3 m/s 762 mmHg 59%
    16:00 +24°C° 0 mm 3 m/s 762 mmHg 59%
    17:00 +24°C° 0 mm 3 m/s 761 mmHg 59%
    18:00 +23°C° 0 mm 2 m/s 762 mmHg 66%
    19:00 +20°C° 0 mm 2 m/s 762 mmHg 72%
    20:00 +18°C° 0 mm 2 m/s 762 mmHg 78%
    21:00 +18°C° 0 mm 2 m/s 762 mmHg 80%
    22:00 +17°C° 0 mm 2 m/s 762 mmHg 82%
    23:00 +16°C° 0 mm 1 m/s 762 mmHg 84%

    26 Abril, Sexta-feira

    Tempo Temperatura Precipitação Vento Pressão Humidade
    00:00 +16°C° 0 mm 2 m/s 762 mmHg 86%
    01:00 +15°C° 0 mm 2 m/s 762 mmHg 88%
    02:00 +14°C° 0 mm 2 m/s 761 mmHg 90%
    03:00 +14°C° 0 mm 2 m/s 761 mmHg 91%
    04:00 +13°C° 0 mm 2 m/s 761 mmHg 92%
    05:00 +13°C° 0 mm 1 m/s 761 mmHg 93%
    06:00 +13°C° 0 mm 1 m/s 761 mmHg 89%
    07:00 +14°C° 0 mm 2 m/s 761 mmHg 84%
    08:00 +15°C° 0 mm 2 m/s 761 mmHg 79%
    09:00 +16°C° 0 mm 2 m/s 761 mmHg 76%
    10:00 +18°C° 0 mm 2 m/s 760 mmHg 72%
    11:00 +19°C° 0 mm 2 m/s 760 mmHg 69%
    12:00 +21°C° 0 mm 2 m/s 759 mmHg 65%
    13:00 +23°C° 0 mm 2 m/s 759 mmHg 62%
    14:00 +25°C° 0 mm 2 m/s 758 mmHg 59%
    15:00 +25°C° 0 mm 2 m/s 758 mmHg 58%
    16:00 +25°C° 0 mm 2 m/s 757 mmHg 58%
    17:00 +26°C° 0 mm 2 m/s 757 mmHg 58%
    18:00 +24°C° 0 mm 2 m/s 757 mmHg 63%
    19:00 +23°C° 0 mm 2 m/s 757 mmHg 69%
    20:00 +20°C° 0 mm 2 m/s 757 mmHg 75%
    21:00 +19°C° 0 mm 2 m/s 757 mmHg 75%
    22:00 +19°C° 0 mm 2 m/s 757 mmHg 76%
    23:00 +18°C° 0 mm 2 m/s 757 mmHg 76%
    Mostrar mais